Tracking 30696 objects as of 15-Jun-2025
HD Live streaming from Space Station
objects crossing your sky now

TITAN 3C TRANSTAGE DEB

Track TITAN 3C TRANSTAGE DEB now!


NORAD ID: 26050
Int'l Code: 1965-108AJ
Perigee: 983.8 km
Apogee: 29,860.0 km
Inclination: 26.7 °
Period: 533.6 minutes
Semi major axis: 21792 km
RCS: 0.1424 m2 (medium)
Launch date: December 21, 1965
Source: United States (US)
Launch site: AIR FORCE EASTERN TEST RANGE (AFETR)

Note: This is SATELLITE DEBRIS
Your satellite tracking list
Your tracking list is empty




NASA's NSSDC Master Catalog

Two Line Element Set (TLE):
1 26050U 65108AJ  25163.68796781 -.00000262  00000-0 -11859-1 0  9999
2 26050  26.6824  11.7073 6625140  29.4710 355.5241  2.69854898256242
Source of the keplerian elements: AFSPC